This is the latest recevied weather packets stored in our database for station/object KC3ULW-13. If no packets are shown the sender has not sent any weather packets the latest 10 day(s).
| Time | Temp. | Humidity | Pressure | Rain* | Wind** | Luminosity | Snow |
|---|---|---|---|---|---|---|---|
| 1777129652 | 16.11° C | 93% | 1011 hPa | 0 mm | - | 30 W/m² | - |
| 1777129352 | 16.11° C | 93% | 1010.9 hPa | 0 mm | - | 84 W/m² | - |
| 1777129047 | 16.11° C | 93% | 1010.8 hPa | 0 mm | - | 132 W/m² | - |
| 1777128743 | 16.11° C | 93% | 1010.7 hPa | 0 mm | - | 117 W/m² | - |
| 1777128441 | 16.11° C | 93% | 1010.6 hPa | 0 mm | - | 173 W/m² | - |
| 1777128138 | 16.11° C | 93% | 1010.6 hPa | 0 mm | - | 193 W/m² | - |
| 1777127836 | 16.11° C | 92% | 1010.7 hPa | 0 mm | - | 165 W/m² | - |
| 1777127533 | 16.11° C | 92% | 1010.5 hPa | 0 mm | - | 122 W/m² | - |
| 1777127229 | 16.11° C | 92% | 1010.5 hPa | 1.78 mm | - | 118 W/m² | - |
| 1777126925 | 16.11° C | 92% | 1010.5 hPa | 1.78 mm | - | 149 W/m² | - |
| 1777126621 | 16.11° C | 92% | 1011 hPa | 0 mm | - | 101 W/m² | - |
| 1777126317 | 16.11° C | 92% | 1010.9 hPa | 0 mm | - | 105 W/m² | - |
| 1777126013 | 16.11° C | 92% | 1010.8 hPa | 1.27 mm | - | 126 W/m² | - |
| 1777125711 | 16.11° C | 92% | 1011 hPa | 1.27 mm | - | 125 W/m² | - |
| 1777125406 | 16.11° C | 92% | 1010.8 hPa | 1.78 mm | - | 100 W/m² | - |
| 1777125101 | 15.56° C | 91% | 1010.9 hPa | 1.78 mm | - | 69 W/m² | - |
| 1777124797 | 16.11° C | 91% | 1010.7 hPa | 0 mm | - | 64 W/m² | - |
| 1777124492 | 16.11° C | 91% | 1010.8 hPa | 0 mm | - | 50 W/m² | - |
| 1777124189 | 15.56° C | 91% | 1010.7 hPa | 0 mm | - | 53 W/m² | - |
| 1777123886 | 15.56° C | 91% | 1010.8 hPa | 0 mm | - | 65 W/m² | - |
| 1777123583 | 15.56° C | 91% | 1010.6 hPa | 0 mm | - | 68 W/m² | - |
| 1777123279 | 15.56° C | 91% | 1010.7 hPa | 0 mm | - | 71 W/m² | - |
| 1777122975 | 15.56° C | 91% | 1010.6 hPa | 0 mm | - | 35 W/m² | - |
| 1777122672 | 15.56° C | 91% | 1010.8 hPa | 0 mm | - | 62 W/m² | - |
| 1777122367 | 15.56° C | 91% | 1010.8 hPa | 0 mm | - | 47 W/m² | - |
* Rain latest hour (hover to see other rain measurements)
** Current wind speed in m/s (hover to see current wind gust speed)